Left ArrowRight Arrow

Hourly Observations for December 28, 2020

Temp ( °F °C ) Dew Point ( °F °C ) Humidity (%) Winds ( mph kmh ) Pressure ( in mb ) Visibility ( mi km ) Precip ( " mm )
12:53 am 00:53 Clear 73 22.8 63 17.2 71 71 ESE 7 11 30.04 1017 10 16 0.00 0.00
1:53 am 01:53 Clear 73 22.8 64 17.8 74 74 ESE 7 11 30.03 1017 10 16 0.00 0.00
2:53 am 02:53 Clear 73 22.8 64 17.8 74 74 ESE 5 7 30.02 1017 10 16 0.00 0.00
3:53 am 03:53 Partly Cloudy 72 22.2 64 17.8 76 76 ENE 5 7 30.02 1017 10 16 0.00 0.00
4:53 am 04:53 Clear 71 21.7 64 17.8 79 79 ENE 6 9 30.02 1017 10 16 0.00 0.00
5:53 am 05:53 Mostly Cloudy 71 21.7 63 17.2 76 76 ENE 5 7 30.02 1017 10 16 0.00 0.00
6:53 am 06:53 Mostly Clear 70 21.1 61 16.1 73 73 NE 5 7 30.04 1017 10 16 0.00 0.00
7:53 am 07:53 Mostly Sunny 73 22.8 61 16.1 66 66 N 5 7 30.06 1018 10 16 0.00 0.00
8:53 am 08:53 Sunny 78 25.6 64 17.8 62 62 N 5 7 30.07 1018 10 16 0.00 0.00
9:53 am 09:53 Mostly Sunny 78 25.6 65 18.3 64 64 WNW 5 7 30.07 1018 10 16 0.00 0.00
10:53 am 10:53 Mostly Sunny 79 26.1 66 18.9 65 65 WSW 6 9 30.06 1018 10 16 0.00 0.00
11:53 am 11:53 Mostly Sunny 81 27.2 66 18.9 61 61 SW 9 15 30.04 1017 8 13 0.00 0.00
12:53 pm 12:53 Mostly Sunny 82 27.8 66 18.9 58 58 SW 12 19 30.02 1017 10 16 0.00 0.00
1:53 pm 13:53 Sunny 82 27.8 66 18.9 58 58 SSW 13 20 30.01 1016 10 16 0.00 0.00
2:53 pm 14:53 Sunny 82 27.8 66 18.9 58 58 S 15 24 30.00 1016 10 16 0.00 0.00
3:53 pm 15:53 Sunny 82 27.8 66 18.9 58 58 S 14 22 30.00 1016 10 16 0.00 0.00
4:53 pm 16:53 Sunny 81 27.2 66 18.9 61 61 SSE 13 20 30.02 1017 10 16 0.00 0.00
5:53 pm 17:53 Sunny 79 26.1 66 18.9 65 65 SSE 12 19 30.04 1017 10 16 0.00 0.00
6:53 pm 18:53 Mostly Clear 78 25.6 66 18.9 67 67 ESE 6 9 30.06 1018 10 16 0.00 0.00
7:53 pm 19:53 Cloudy 78 25.6 66 18.9 67 67 E 6 9 30.07 1018 10 16 0.00 0.00
8:10 pm 20:10 Cloudy 78 25.6 66 18.9 67 67 ESE 6 9 30.08 1019 10 16 0.00 0.00
8:19 pm 20:19 Cloudy 78 25.6 67 19.4 69 69 ENE 6 9 30.08 1019 10 16 0.00 0.00
8:53 pm 20:53 Cloudy 78 25.6 67 19.4 69 69 ENE 7 11 30.08 1019 10 16 0.00 0.00
9:53 pm 21:53 Partly Cloudy 76 24.4 65 18.3 69 69 E 7 11 30.08 1019 10 16 0.00 0.00
10:53 pm 22:53 Mostly Clear 75 23.9 63 17.2 66 66 E 5 7 30.08 1019 10 16 0.00 0.00
11:53 pm 23:53 Clear 74 23.3 63 17.2 69 69 E 5 7 30.07 1018 10 16 0.00 0.00

Powered by Vaisala Xweather